Pagina principale
METAR-TAF:

METAR-TAF

Aeroporti :

Monte Argentario, Italia

latitudine: 42-23N, longitudine: 011-10E, altezza: 630 m

Osservazione

Il bollettino è stato emesso 21 minuti fa, alle 15:55 UTC
Vento 2 kt da ovest/nord-ovest
Temperature 31°C
Umidità 29%
Pressione 1018 hPa
Visibilità 10 km o più
Poco nuvoloso ad un'altezza di 700 ft
Poco nuvoloso ad un'altezza di 1000 ft, Cumulonembo.
temporale

METAR: LIQO 181555Z 30002KT 9999 TS FEW007 FEW010CB 31/11 Q1018 RMK SCT VAL NIL NC VIS MIN 9999

Ora: 18:16 (16:16 UTC)


TAF: mancante

Osservazioni e previsioni meteorologiche di più di 4000 aeroporti (messaggi METAR e TAF).

Le stazioni disponibili sono rappresentate dai dischi gialli e rossi sulla carta.

Puntare il mouse per vedere il nome della stazione.

Clicca sopra per visualizzare le osservazioni e previsioni meteorologiche.

Per cambiare la mappa : fare clic sui pulsanti verdi con una croce nera per ingrandire, il pulsante verde con un trattino per diminuire, o sulla freccia verde per le mappe adiacenti.


METAR-TAF: